Flag for U.S.A. Weather past 2 weeks in Fayetteville, North Carolina, U.S.A.

Now
78 °F

Sunny.


Feels Like: 80 °F
Forecast: 74 / 93 °F
Wind: No wind

Location: Fayetteville Regional Airport

Current Time: Jul 30, 2015 at 8:28:18 AM

Latest Report: Jul 30, 2015 at 7:53 AM


Visibility: 10 mi

Pressure: 29.93 "Hg

Humidity: 79%

Dew point: 71 °F

Location of FayettevilleLocation

Historic Weather in Fayetteville — Graph

°F

Fayetteville temperature yesterday

Maximum temperature yesterday: 94 °F (at 3:53 PM)
Minimum temperature yesterday: 72 °F (at 4:53 AM)
Average temperature yesterday: 83 °F

Past Weeks' High & Low Weather Summary

 TemperatureHumidityPressure
High97 °F (Jul 19, 5:00 PM)97% (Jul 17, 4:53 AM)30.06 "Hg (Jul 17, 4:53 AM)
Low65 °F (Jul 26, 5:53 AM)32% (Jul 26, 4:53 PM)29.66 "Hg (Jul 21, 6:53 PM)
Average82 °F70%29.91 "Hg
* Reported Jul 15 6:53 AM — Jul 30 6:53 AM, Fayetteville, Weather by CustomWeather, © 2015

Note: Actual official high and low records may vary slightly from our data, if they occured in-between our weather recording intervals... More about our weather records

Advertising

Fayetteville weather history for previous 24 hours

 ConditionsComfort  
Time TempWeatherWind HumidityBarometerVisibility
6:53 AM
Thu, Jul 30
77 °FClear.5 mph79%29.93 "Hg10 mi
5:53 AM75 °FClear.No wind85%29.93 "Hg10 mi
4:53 AM75 °FClear.3 mph85%29.93 "Hg10 mi
3:53 AM76 °FClear.3 mph82%29.93 "Hg10 mi
2:53 AM78 °FClear.No wind74%29.94 "Hg10 mi
1:53 AM77 °FClear.3 mph82%29.96 "Hg10 mi
12:53 AM78 °FClear.5 mph79%29.96 "Hg10 mi
11:53 PM
Wed, Jul 29
80 °FClear.3 mph74%29.96 "Hg10 mi
10:53 PM81 °FClear.8 mph77%29.95 "Hg10 mi
9:53 PM83 °FClear.8 mph72%29.95 "Hg10 mi
8:53 PM84 °FSunny.3 mph63%29.93 "Hg10 mi
7:53 PM87 °FSunny.5 mph57%29.92 "Hg10 mi
6:53 PM91 °FSunny.10 mph49%29.89 "Hg10 mi
5:53 PM93 °FSunny.7 mph44%29.90 "Hg10 mi
4:53 PM93 °FSunny.5 mph40%29.92 "Hg10 mi
3:53 PM94 °FSunny.5 mph40%29.94 "Hg10 mi
2:53 PM92 °FSunny.N/A41%29.95 "Hg10 mi
1:53 PM90 °FSunny.5 mph43%29.96 "Hg10 mi
12:53 PM90 °FSunny.7 mph45%29.98 "Hg10 mi
11:53 AM87 °FScattered clouds.3 mph51%30.00 "Hg10 mi
10:53 AM86 °FSunny.No wind57%30.01 "Hg10 mi
9:53 AM83 °FSunny.No wind68%30.00 "Hg10 mi
8:53 AM80 °FSunny.5 mph76%29.99 "Hg10 mi
Weather by CustomWeather, © 2015

See weather overviewHow to use our weather pages